CW3932 Weather Reports


time (UTC)temp
F
wind
direction
speed
knots
gust
knots
rain 1hr
in
rain 24hr
in
rain mn
in
humidity
%
barometer
mb
20260506033115 73 341 0.9 4.3 0.00 0.00 0.00 42 1012.9
20260506031112 74 313 1.7 7.8 0.00 0.00 0.00 40 1012.6
20260506030107 76 355 1.7 7.0 0.00 0.00 0.00 39 1012.5
20260506025107 77 0 1.7 5.2 0.00 0.00 0.00 37 1012.2
20260506024114 78 5 1.7 5.2 0.00 0.00 0.00 36 1012.1
20260506023559 78 5 1.7 5.2 0.00 0.00 0.00 35 1012.0
20260506022113 79 9 1.7 5.2 0.00 0.00 0.00 33 1011.8
20260506021109 79 5 2.6 8.7 0.00 0.00 0.00 33 1011.8
20260506020609 80 350 1.7 7.0 0.00 0.00 0.00 32 1011.6
20260506014112 82 0 2.6 8.7 0.00 0.00 0.00 30 1011.5
20260506013611 83 9 1.7 11.3 0.00 0.00 0.00 31 1011.5
20260506012604 83 331 1.7 9.6 0.00 0.00 0.00 34 1011.5
20260506011114 83 11 1.7 7.8 0.00 0.00 0.00 34 1011.4
20260506010108 83 313 1.7 7.0 0.00 0.00 0.00 34 1011.4
20260506005112 83 271 1.7 7.0 0.00 0.00 0.00 34 1011.4
20260506004101 83 344 1.7 8.7 0.00 0.00 0.00 35 1011.3
20260506003101 83 273 1.7 5.2 0.00 0.00 0.00 36 1011.4
20260506002059 83 11 1.7 7.0 0.00 0.00 0.00 36 1011.4
20260506001101 83 211 1.7 7.0 0.00 0.00 0.00 37 1011.3
20260506000105 83 316 2.6 8.7 0.00 0.00 0.00 36 1011.4
20260505235541 83 15 1.7 8.7 0.00 0.00 0.00 38 1011.3
20260505234101 82 302 1.7 8.7 0.00 0.00 0.00 37 1011.4
20260505233106 82 313 1.7 5.2 0.00 0.00 0.00 36 1011.5
20260505232105 82 17 1.7 7.0 0.00 0.00 0.00 38 1011.6
20260505231055 83 273 1.7 8.7 0.00 0.00 0.00 37 1011.6
20260505230101 82 313 2.6 9.6 0.00 0.00 0.00 38 1011.7
20260505225057 82 323 1.7 9.6 0.00 0.00 0.00 37 1011.8
20260505223058 81 147 1.7 7.0 0.00 0.00 0.00 41 1012.1
20260505222054 80 317 1.7 7.0 0.00 0.00 0.00 39 1012.1
20260505221055 80 321 1.7 4.3 0.00 0.00 0.00 38 1012.3
20260505215100 79 40 2.6 7.0 0.00 0.00 0.00 36 1012.5
20260505214055 79 282 1.7 7.8 0.00 0.00 0.00 40 1012.7
20260505213550 78 303 1.7 7.0 0.00 0.00 0.00 42 1012.7
20260505212054 78 304 1.7 7.8 0.00 0.00 0.00 42 1012.8
20260505211054 77 313 1.7 4.3 0.00 0.00 0.00 43 1012.8
20260505210053 76 137 0.9 7.8 0.00 0.00 0.00 44 1013.0
20260505205053 74 61 1.7 8.7 0.00 0.00 0.00 44 1013.1
20260505204053 74 112 1.7 5.2 0.00 0.00 0.00 45 1013.2
20260505203052 73 355 1.7 4.3 0.00 0.00 0.00 47 1013.5
20260505202050 73 273 1.7 7.8 0.00 0.00 0.00 48 1013.7
20260505201049 72 34 2.6 7.8 0.00 0.00 0.00 50 1013.7
20260505200540 72 30 1.7 8.7 0.00 0.00 0.00 50 1013.9
20260505195053 72 297 1.7 7.0 0.00 0.00 0.00 49 1013.9
20260505194531 71 289 2.6 8.7 0.00 0.00 0.00 50 1013.9
20260505193050 72 322 1.7 7.8 0.00 0.00 0.00 49 1014.1
20260505192554 71 136 1.7 7.0 0.00 0.00 0.00 54 1014.1
20260505191046 70 298 1.7 8.7 0.00 0.00 0.00 54 1014.2
20260505190052 70 141 1.7 7.8 0.00 0.00 0.00 55 1014.2
20260505185534 69 349 1.7 5.2 0.00 0.00 0.00 56 1014.3
20260505184048 69 329 1.7 7.0 0.00 0.00 0.00 55 1014.4
20260505183047 69 355 2.6 8.7 0.00 0.00 0.00 56 1014.5
20260505182045 68 319 1.7 7.8 0.00 0.00 0.00 58 1014.5
20260505181048 67 279 0.9 4.3 0.00 0.00 0.00 62 1014.5
20260505180047 67 288 1.7 5.2 0.00 0.00 0.00 60 1014.6
20260505175526 66 10 0.9 4.3 0.00 0.00 0.00 60 1014.6
20260505174540 66 241 0.9 4.3 0.00 0.00 0.00 62 1014.6
20260505173046 65 119 1.7 5.2 0.00 0.00 0.00 64 1014.6
20260505172046 64 200 1.7 7.0 0.00 0.00 0.00 66 1014.7
20260505171042 63 243 0.9 3.5 0.00 0.00 0.00 67 1014.8
20260505170043 63 251 0.9 3.5 0.00 0.00 0.00 68 1014.8
20260505165051 62 279 0.9 4.3 0.00 0.00 0.00 70 1015.0
20260505164522 61 5 0.9 4.3 0.00 0.00 0.00 73 1015.0
20260505163037 60 26 0.9 3.5 0.00 0.00 0.00 73 1015.0
20260505162036 59 315 0.9 4.3 0.00 0.00 0.00 74 1015.0
20260505161037 59 331 0.9 2.6 0.00 0.00 0.00 78 1015.1
20260505153036 57 336 0.0 0.9 0.00 0.00 0.00 81 1015.0
20260505152044 56 336 0.0 0.9 0.00 0.00 0.00 82 1015.0
20260505151043 56 336 0.0 0.9 0.00 0.00 0.00 83 1014.9
20260505124027 55 318 0.9 3.5 0.00 0.00 0.00 83 1013.9
20260505123524 55 318 0.0 2.6 0.00 0.00 0.00 84 1013.8
20260505122505 55 318 0.9 2.6 0.00 0.00 0.00 84 1013.8
20260505121029 55 318 0.0 2.6 0.00 0.00 0.00 84 1013.7
20260505120027 55 318 0.9 3.5 0.00 0.00 0.00 84 1013.6
20260505115028 55 318 0.0 2.6 0.00 0.00 0.00 84 1013.5
20260505114025 55 318 0.0 2.6 0.00 0.00 0.00 85 1013.5
20260505113024 55 318 0.9 3.5 0.00 0.00 0.00 85 1013.4
20260505112028 54 319 0.9 4.3 0.00 0.00 0.00 86 1013.4
20260505111024 54 320 0.0 3.5 0.00 0.00 0.00 86 1013.2
20260505102026 55 294 0.0 0.9 0.00 0.00 0.00 81 1013.1
20260505101026 55 294 0.0 0.0 0.00 0.00 0.00 80 1013.0
20260505100027 55 294 0.0 0.9 0.00 0.00 0.00 80 1012.9
20260505095020 56 294 0.0 0.9 0.00 0.00 0.00 79 1013.0
20260505094026 56 294 0.0 0.9 0.00 0.00 0.00 79 1013.0
20260505093017 56 294 0.0 3.5 0.00 0.00 0.00 78 1013.0
20260505092015 57 294 0.9 3.5 0.00 0.00 0.00 78 1012.9
20260505091022 57 266 0.9 3.5 0.00 0.00 0.00 78 1012.9
20260505090020 57 263 0.0 2.6 0.00 0.00 0.00 77 1012.9
20260505085014 58 263 0.9 8.7 0.00 0.00 0.00 77 1012.9
20260505084018 58 288 0.9 7.0 0.00 0.00 0.00 77 1012.8
20260505083017 58 318 1.7 5.2 0.00 0.00 0.00 77 1012.8
20260505082018 58 0 1.7 7.0 0.00 0.00 0.00 77 1012.8
20260505081013 58 348 1.7 8.7 0.00 0.00 0.00 76 1012.7
20260505080445 59 344 1.7 8.7 0.00 0.00 0.00 76 1012.6
20260505075006 59 306 1.7 9.6 0.00 0.00 0.00 75 1012.6
20260505074013 59 312 1.7 5.2 0.00 0.00 0.00 75 1012.7
20260505073013 59 332 1.7 7.8 0.00 0.00 0.00 74 1012.6
20260505072008 59 318 1.7 9.6 0.00 0.00 0.00 74 1012.5
20260505071457 60 351 1.7 9.6 0.00 0.00 0.00 73 1012.4
20260505070459 60 315 1.7 8.7 0.00 0.00 0.00 73 1012.3
20260505065008 60 321 1.7 5.2 0.00 0.00 0.00 72 1012.2
20260505064002 61 345 1.7 5.2 0.00 0.00 0.00 71 1012.1
20260505063001 61 355 0.9 4.3 0.00 0.00 0.00 70 1012.0
20260505062002 62 355 1.7 5.2 0.00 0.00 0.00 69 1011.8
20260505061005 62 344 1.7 4.3 0.00 0.00 0.00 69 1011.7
20260505060440 63 313 0.9 4.3 0.00 0.00 0.00 68 1011.6
20260505054958 63 317 0.9 4.3 0.00 0.00 0.00 67 1011.5
20260505054006 64 309 1.7 7.8 0.00 0.00 0.00 66 1011.4
20260505053001 64 330 1.7 9.6 0.00 0.00 0.00 65 1011.3
20260505052451 65 348 1.7 7.0 0.00 0.00 0.00 65 1011.2
20260505050954 65 326 1.7 7.0 0.00 0.00 0.00 63 1011.1
20260505040953 68 280 1.7 8.7 0.00 0.00 0.00 59 1010.0
20260505035954 69 306 2.6 8.7 0.00 0.00 0.00 58 1009.8
20260505035433 69 259 1.7 9.6 0.00 0.00 0.00 56 1009.7